Miscellaneous Local Product
Issued by NWS Hastings, NE

Home | Current Version | Previous Version | Graphics & Text | Print | Product List | Glossary On
Versions: 1 2 3 4 5 6 7 8 9 10 11 12 13 14 15 16 17 18 19 20 21 22 23 24 25 26 27 28 29 30 31 32 33 34 35 36 37 38 39 40 41 42 43 44 45 46 47 48 49 50
000
AXUS43 KGID 262202
MISGRI

GID CWA HOURLY WEATHER ROUNDUP
NATIONAL WEATHER SERVICE HASTINGS NE
500 PM CDT WED JUL 26 2017

NOTE: "FAIR" INDICATES FEW OR NO CLOUDS BELOW 12,000 FEET WITH NO
SIGNIFICANT WEATHER AND/OR OBSTRUCTIONS TO VISIBILITY.

...SOUTH CENTRAL NEBRASKA...

CITY           SKY/WX    TMP DP  RH WIND       PRES   REMARKS
GRAND ISLAND   CLOUDY    79  73  82 NE13      30.02R
HASTINGS       CLOUDY    77  70  79 NE12      30.03R
KEARNEY        CLOUDY    80  71  74 NE14      30.03S
ORD            PTSUNNY   81  68  64 N9        30.03S
YORK           CLOUDY    77  73  88 NE12      30.01S
AURORA         CLOUDY    78  74  89 NE9       30.01S
LEXINGTON      PTSUNNY   80  69  70 NE13      30.05F
HOLDREGE       CLOUDY    75  70  84 NE9       30.04S
HEBRON         MOSUNNY   84  72  67 CALM      29.97S HX  90

...NEBRASKA PANHANDLE...

CITY           SKY/WX    TMP DP  RH WIND       PRES   REMARKS
CHADRON        CLOUDY    85  53  33 E14       30.15S
ALLIANCE       CLOUDY    79  60  52 NE13      30.17S
SCOTTSBLUFF    CLOUDY    82  58  43 NE12      30.18F
SIDNEY         CLOUDY    81  60  48 NE16G25   30.19F

...WESTERN AND NORTH CENTRAL NEBRASKA...

CITY           SKY/WX    TMP DP  RH WIND       PRES   REMARKS
VALENTINE      PTSUNNY   87  58  37 E18       30.10S
AINSWORTH      CLOUDY    81  68  64 NE8       30.10S
ONEILL         CLOUDY    81  71  71 NE16      30.06S
BROKEN BOW     CLOUDY    82  67  60 NE10      30.06F
IMPERIAL       CLOUDY    82  63  52 NE17      30.10S
NORTH PLATTE   CLOUDY    77  67  71 NE6       30.09S
MCCOOK         CLOUDY    79  69  71 N15       30.06S

...EASTERN NEBRASKA...

CITY           SKY/WX    TMP DP  RH WIND       PRES   REMARKS
NORFOLK        CLOUDY    82  68  62 E10       30.01S
SO SIOUX CITY  MOSUNNY   86  72  62 MISG      29.98F HX  92
TEKAMAH        PTSUNNY   79  73  82 SE3       29.98S
COLUMBUS       CLOUDY    78  73  84 NE9       30.01S
ALBION         CLOUDY    80  72  75 E7        30.03S
OMAHA EPPLEY   LGT RAIN  76  72  87 CALM      29.98F
OFFUTT AFB     CLOUDY    76  74  93 NE6       29.98S
MILLARD        CLOUDY    76  75  95 CALM      29.98S
LINCOLN        TSTM      73  72  96 N7        30.00R VSB 3/4
NEBRASKA CITY  CLOUDY    79  79  99 SE3       29.98R THUNDER
BEATRICE       CLOUDY    83  72  69 SW6       29.97R
FALLS CITY     CLOUDY    81  75  82 SE7       29.95F

...NORTHERN KANSAS...

CITY           SKY/WX    TMP DP  RH WIND       PRES   REMARKS
GOODLAND       MOSUNNY   84  66  54 NE15G25   30.09F
HILL CITY      PTSUNNY   90  72  55 N20       29.97S HX  97
NORTON         MOCLDY    81  64  57 N20       30.00
PHILLIPSBURG   CLOUDY    86  70  58 N8        29.97S HX  90
SMITH CENTER     N/A     84  72  65 E6        29.97S
HAYS           CLOUDY    96  68  39 VRB5      29.90F HX 101
RUSSELL        CLOUDY    95  67  39 SE7       29.89F HX  99
CONCORDIA      CLOUDY    84  75  74 E7        29.96R HX  92
SALINA         CLOUDY    87  76  69 E13       29.91S HX  97
TOPEKA         LGT RAIN  77  75  93 SE13      29.94F



USA.gov is the U.S. government's official web portal to all federal, state and local government web resources and services.